SCP
0 0 0 0 -0 -0 -0 -0 0 0 0 0 0 0 0 -0 0 0 0 0 0 0 0 -0 -0 -0 -0 -0 -0 -0 -0 -0 -0 -0 -0 -0 -0 -0 0 -0 0 0 0 0 0 0 0 0 0
0 0 0 0 -0 -0 -0 -0 0 0 -0 -0 0 0 0 0 0 0 0 0 0 0 0 0 -0 -0 -0 -0 -0 -0 0 -0 -0 -0 -0 -0 -0 -0 -0 0 0 0 0 -0 0 0 0 0 0
0 0 0 0 0 0 0 -0 0 0 -0 -0 0 0 0 -0 0 0 0 0 0 0 0 0 -0 -0 -0 -0 -0 -0 0 0 -0 0 -0 -0 -0 -0 -0 -0 0 0 0 0 0 0 0 0 0
0 0 0 0 0 0 0 0 -0 -0 0 -0 0 -0 0 0 -0 0 0 0 0 0 0 0 0 0 0 0 0 0 0 -0 -0 -0 0 0 0 -0 -0 -0 0 0 0 0 -0 -0 -0 -0 -0
0 0 0 0 0 0 0 0 -0 -0 0 -0 0 -0 -0 0 0 0 0 -0 0 0 -0 0 0 0 -0 -0 -0 -0 -0 -0 -0 -0 -0 -0 0 0 0 -0 0 -0 -0 -0 -0 -0 -0 -0 -0
0 0 0 0 0 0 0 0 0 0 0 0 0 0 -0 0 0 -0 0 -0 -0 0 -0 -0 -0 -0 -0 -0 -0 -0 -0 -0 -0 -0 -0 -0 -0 -0 -0 -0 -0 -0 -0 -0 -0 -0 -0 -0 -0
0 0 0 0 0 0 0 0 0 0 0 0 0 0 0 0 0 0 0 0 0 0 -0 -0 -0 -0 -0 -0 -0 -0 -0 -0 -0 -0 -0 -0 -0 -0 -0 -0 -0 -0 -0 -0 -0 -0 -0 0 0
0 0 0 0 0 0 0 0 0 0 0 0 0 0 0 0 0 0 0 -0 -0 -0 0 -0 -0 -0 -0 -0 -0 -0 -0 -0 -0 -0 -0 -0 -0 -0 -0 -0 -0 -0 -0 -0 -0 -0 -0 0 0
0 0 0 0 0 0 0 0 0 0 0 0 0 0 0 0 0 0 0 0 -0 -0 0 0 -0 -0 -0 -0 -0 -0 -0 -0 -0 -0 -0 -0 0 -0 -0 -0 -0 -0 -0 -0 -0 0 0 0 0
0 0 0 0 0 0 0 0 0 0 0 0 0 0 0 0 0 0 -0 -0 -0 -0 -0 -0 -0 -0 -0 -0 -0 -0 -0 -0 -0 -0 -0 0 0 0 0 0 0 0 0 0 0 0 0 0 0
0 0 0 0 0 0 0 0 0 0 0 0 0 0 0 0 0 0 0 0 -0 -0 -0 0 0 0 -0 -0 -0 0 0 0 0 0 0 0 0 0 0 0 0 0 0 0 0 0 0 0 0
0 0 0 0 0 0 0 0 0 0 0 0 0 0 0 0 0 0 0 0 0 -0 -0 0 0 0 0 0 0 0 0 0 0 0 0 0 0 0 0 0 0 0 0 0 0 0 0 0 0
0 0 0 0 0 0 0 0 0 0 0 0 0 0 0 0 0 0 0 0 0 0 0 0 0 0 0 0 0 0 0 0 0 0 0 0 0 0 0 0 0 0 0 0 0 0 0 0 0
0 0 0 0 0 0 0 0 0 0 0 0 0 0 0 0 0 0 0 0 0 0 0 0 0 0 0 0 0 0 0 0 0 0 0 0 0 0 0 0 0 0 0 0 0 0 0 0 0
0 0 0 0 0 0 0 0 0 0 0 0 0 0 0 0 0 0 0 0 0 0 0 0 0 0 0 0 0 0 0 0 0 0 0 0 0 0 0 0 0 0 0 0 0 0 0 0 0
0 0 0 0 0 0 0 0 0 0 0 0 0 0 0 0 0 0 0 0 0 0 0 0 0 0 0 0 0 0 0 0 0 0 0 0 0 0 0 0 0 0 0 0 0 0 0 0 0
0 0 0 0 0 0 0 0 0 0 0 0 0 0 0 0 0 0 0 0 0 0 0 0 0 0 0 0 0 0 0 0 0 0 0 0 0 0 0 0 0 0 0 0 0 0 0 0 0
0 0 0 0 0 0 0 0 0 0 0 0 0 0 0 0 0 0 0 0 0 0 0 0 0 0 0 0 0 0 0 0 0 0 0 0 0 0 0 0 0 0 0 0 0 0 0 0 0
0 0 0 0 0 0 0 0 0 0 0 0 0 0 0 0 0 0 0 0 0 0 0 0 0 0 0 0 0 0 0 0 0 0 0 0 0 0 0 0 0 0 0 0 0 0 0 0 0
0 0 0 0 0 0 0 0 0 0 0 0 0 0 0 0 0 0 0 0 0 0 0 0 0 0 0 0 0 0 0 0 0 0 0 0 0 0 0 0 0 0 0 0 0 0 0 0 0
0 0 0 0 0 0 -0 -0 -0 0 0 0 0 0 0 0 0 0 0 0 0 0 0 0 0 0 0 0 0 0 0 0 0 0 0 0 0 0 0 0 0 0 0 0 0 0 0 0 0
0 0 0 0 0 0 0 -0 -0 0 0 0 0 0 0 0 0 0 0 0 0 0 0 0 0 0 0 0 0 0 0 0 0 0 0 0 0 0 0 0 0 0 0 0 0 0 0 0 0
0 0 0 0 0 0 0 0 -0 -0 0 0 0 0 0 0 0 0 0 0 0 0 0 0 0 0 0 0 0 0 0 0 0 0 0 0 0 0 0 0 0 0 0 0 0 0 0 0 0
0 0 0 0 0 0 0 0 -0 0 -0 0 0 0 0 0 0 0 0 0 0 0 0 0 0 0 0 0 0 0 0 0 0 0 0 0 0 0 0 0 0 0 0 0 0 0 0 0 0
0 0 0 0 0 0 0 0 0 0 0 -0 0 0 0 0 0 0 0 0 0 0 0 0 0 0 0 0 0 0 0 0 0 0 0 0 0 0 0 0 0 0 0 0 0 0 0 0 0
0 0 0 0 0 0 0 0 0 -0 -0 0 0 0 0 0 0 0 0 0 0 0 0 0 0 0 0 0 0 0 0 0 0 0 0 0 0 0 0 0 0 0 0 0 0 0 0 0 0
0 0 0 0 0 0 0 0 0 0 0 0 0 0 0 0 0 0 0 0 0 0 0 0 0 0 0 0 0 0 0 0 0 0 0 0 0 0 0 0 0 0 0 0 0 0 0 0 0
0 0 0 0 0 0 0 0 0 0 0 0 0 0 0 0 0 0 0 0 0 0 0 0 0 0 0 0 0 0 0 0 0 0 0 0 0 0 0 0 0 0 0 0 0 0 0 0 0
0 0 0 0 0 0 0 0 0 0 0 0 0 0 0 0 0 0 0 0 0 0 0 0 0 0 0 0 0 0 0 0 0 0 0 0 0 0 0 0 0 0 0 0 0 0 0 0 0
0 0 0 0 0 0 0 0 0 0 0 0 0 0 0 0 0 0 0 0 0 0 0 0 0 0 0 0 0 0 0 0 0 0 0 0 0 0 0 0 0 0 0 0 0 0 0 0 0
Wind_Speed_500mb
27 29 30 9 8 10 2 3 2 6 1 4 16 9 9 7 8 5 25 22 23 22 24 23 21 21 22 20 19 18 13 15 14 12 14 17 20 22 24 25 24 25 30 28 32 33 36 39 42
26 26 16 6 9 5 6 4 9 7 16 31 21 13 5 2 8 13 32 27 22 21 23 25 22 24 23 22 20 17 13 11 11 12 15 19 23 27 26 25 24 26 25 30 29 32 35 34 36
24 22 9 8 6 5 7 7 9 14 28 7 9 7 3 5 10 30 23 26 24 23 24 25 24 26 24 21 19 16 15 11 7 10 18 21 24 25 26 24 23 24 25 24 24 27 30 33 36
19 9 9 7 2 2 4 8 13 21 6 8 17 11 5 4 16 28 28 25 22 22 23 24 25 29 26 22 20 19 16 10 8 11 16 22 21 22 22 22 21 21 20 20 22 25 26 29 31
13 7 8 5 6 6 5 6 22 7 12 12 8 7 4 23 15 20 26 23 22 22 23 24 28 29 29 27 23 21 16 10 8 11 15 18 19 20 19 18 19 19 18 16 19 21 23 26 29
6 6 7 3 7 8 5 19 14 7 11 15 9 17 11 23 13 24 22 22 22 20 24 24 28 31 31 28 26 23 18 13 9 10 13 15 17 18 18 17 17 17 15 14 14 17 20 22 23
10 7 7 4 4 9 1 16 9 13 9 9 16 12 8 28 22 24 23 24 23 25 24 26 29 31 31 31 28 26 21 14 8 8 11 12 14 15 16 15 16 15 14 11 9 13 16 17 18
11 9 7 7 5 5 3 13 6 18 13 9 19 8 8 39 33 33 28 27 28 29 27 27 28 30 31 30 30 27 22 16 11 9 8 12 13 13 12 13 14 14 13 11 8 8 10 10 12
20 7 5 9 13 6 8 7 6 9 13 18 21 10 10 37 43 43 40 38 36 36 34 31 30 30 30 31 31 29 24 19 16 13 13 12 11 12 12 12 12 12 12 10 8 5 3 5 7
9 10 15 7 8 8 5 4 6 9 12 16 24 23 17 40 49 53 54 50 47 45 41 37 33 32 32 32 31 29 25 20 17 14 13 12 12 14 13 10 10 10 9 7 5 5 1 3 3
6 14 14 7 5 3 10 4 2 11 5 26 36 37 30 46 52 55 57 52 48 47 45 42 38 35 33 32 31 29 27 23 20 17 15 14 14 13 13 11 9 8 6 6 6 4 4 5 5
3 13 23 21 21 5 5 3 4 15 16 11 31 34 40 50 54 56 59 59 54 51 48 45 43 40 36 34 31 30 28 25 21 19 17 15 14 14 13 12 10 9 8 9 7 7 6 5 7
6 7 10 8 16 27 23 24 20 23 21 28 25 30 47 53 51 56 56 57 57 55 52 50 47 45 42 39 36 34 30 26 22 22 19 17 16 15 14 13 13 11 11 9 10 10 9 8 9
1 12 19 9 11 15 10 13 10 29 35 23 29 32 45 56 54 61 62 61 64 59 56 54 53 50 48 44 42 38 34 30 29 26 22 20 19 19 18 16 14 13 12 12 12 12 11 11 11
4 8 11 11 12 10 9 13 16 48 37 39 31 38 44 54 65 62 60 63 60 64 58 60 57 55 54 50 46 44 40 37 35 31 29 26 25 22 21 19 18 15 15 15 14 14 14 14 14
8 4 6 5 15 14 14 22 20 44 35 44 44 41 49 56 63 63 66 65 62 66 68 63 62 61 59 56 52 49 47 44 40 37 35 33 30 28 26 24 21 21 22 19 18 18 17 16 15
2 6 10 14 16 5 15 7 32 51 39 40 46 50 54 57 65 67 69 67 65 64 69 72 69 67 63 60 58 55 52 52 47 45 43 40 37 35 32 30 27 28 27 25 24 23 21 18 16
11 8 8 13 3 10 14 18 30 38 38 63 63 54 53 59 66 67 70 68 71 68 69 73 75 73 67 66 64 62 60 59 56 53 50 46 44 41 39 36 35 34 34 31 28 26 21 20 21
6 8 11 5 12 8 14 15 29 46 35 42 49 49 62 72 71 67 71 75 77 76 75 77 80 81 77 77 75 74 74 69 66 62 57 54 50 47 45 42 40 41 40 35 32 30 27 28 24
4 7 6 7 11 5 11 26 20 40 27 49 67 66 72 72 69 67 70 79 84 84 80 82 86 84 84 84 81 81 75 78 71 66 64 61 58 52 51 49 46 44 44 42 40 38 34 35 32
17 23 13 8 11 7 12 37 20 25 51 56 71 82 75 76 89 91 88 81 83 89 91 91 88 88 89 89 87 86 81 83 82 81 75 70 64 61 57 54 52 48 49 48 45 43 41 40 36
13 14 14 21 1 14 6 26 16 12 37 25 53 69 89 95 98 97 98 98 96 84 92 95 95 94 96 95 95 95 95 94 92 88 79 77 70 65 62 59 57 54 53 53 49 45 44 46 43
5 13 14 10 8 5 8 12 13 15 33 39 34 68 82 89 102 115 113 112 106 99 91 91 97 101 101 101 101 98 99 95 90 87 82 82 75 71 67 64 59 58 56 53 51 47 49 50 46
12 9 7 4 1 18 32 17 42 25 28 40 21 54 69 81 92 100 101 105 110 102 105 104 93 102 105 102 104 102 100 99 94 90 83 79 75 73 71 65 62 58 56 53 52 47 46 46 47
11 8 3 7 10 18 17 19 55 13 27 21 21 58 65 68 77 82 87 94 101 107 106 110 106 99 105 108 105 102 101 99 95 89 84 79 77 74 72 66 62 61 57 54 50 47 52 49 53
17 13 8 12 9 9 5 19 33 15 37 53 58 67 76 76 73 76 79 82 87 91 105 106 107 99 101 108 103 100 101 98 92 89 86 80 78 71 65 58 58 58 54 52 52 47 52 49 57
10 17 17 8 5 8 10 17 27 31 29 43 57 50 56 67 84 86 81 75 79 85 91 110 107 100 102 103 100 103 97 97 94 89 85 80 73 69 60 58 58 52 51 49 45 50 50 55 51
9 12 9 9 11 12 12 12 27 5 6 11 17 52 74 85 82 75 76 79 84 86 82 93 104 106 102 99 103 102 98 91 92 91 87 81 71 64 58 57 56 52 50 46 52 50 53 57 57
11 18 6 1 9 7 12 16 33 31 25 32 34 57 58 64 66 69 69 66 72 76 82 86 92 104 107 99 99 104 99 91 89 90 88 80 69 62 58 57 55 50 54 53 58 55 53 57 61
13 17 32 17 13 6 16 36 14 15 16 17 42 73 65 64 68 65 70 64 67 77 74 82 84 96 111 104 98 100 96 91 88 88 87 80 71 64 60 57 54 51 61 59 60 61 61 57 64
Wind_Direction_500mb
328 334 338 350 52 67 110 217 136 108 165 167 136 163 181 100 155 206 153 150 158 165 164 166 163 157 148 138 125 117 103 96 110 109 100 102 100 95 91 90 90 90 92 91 85 84 77 80 81
332 340 346 21 81 65 271 265 159 180 138 114 102 101 75 107 144 155 154 154 162 169 176 171 173 159 155 145 136 126 125 120 105 102 101 100 97 97 94 93 90 92 98 89 86 80 80 81 82
333 346 3 80 100 158 194 200 158 139 140 122 119 93 87 153 176 162 164 161 160 174 176 175 176 167 159 149 140 132 133 147 111 102 103 101 94 93 94 92 92 98 99 93 90 85 81 78 79
346 355 45 72 330 261 222 181 154 139 195 184 141 79 99 242 157 163 167 161 163 172 172 177 175 176 164 157 156 143 140 135 123 99 97 102 99 98 95 95 99 106 103 97 91 85 82 75 75
359 31 40 47 299 280 263 183 162 150 148 152 152 159 109 142 141 168 168 165 166 171 173 177 176 177 173 167 163 158 156 155 128 98 100 108 109 105 100 96 100 109 109 104 92 83 80 76 76
62 74 52 305 303 303 291 165 165 164 151 155 128 135 151 166 163 163 168 170 167 179 174 177 179 178 176 173 170 171 172 169 143 115 101 112 119 112 106 101 101 105 108 101 93 91 86 82 80
107 81 182 216 268 319 98 164 183 171 170 208 159 134 194 181 165 173 172 174 176 183 181 178 179 179 183 181 181 185 185 190 182 149 119 122 123 118 117 111 109 111 114 111 97 89 81 81 79
119 88 146 223 199 257 50 185 226 181 200 194 179 184 216 185 176 181 181 184 188 189 189 188 185 183 185 188 189 195 202 205 203 184 144 142 142 139 129 124 123 122 122 120 118 90 82 79 74
137 76 219 217 160 224 5 188 176 193 172 178 201 221 222 187 181 186 188 191 195 196 197 197 196 192 190 192 193 197 206 210 204 191 172 161 157 153 150 145 135 133 131 135 129 108 69 59 49
144 140 217 244 183 147 354 189 186 171 180 210 217 215 216 189 192 195 197 198 198 199 199 199 200 197 195 194 195 197 200 197 195 191 190 186 176 174 172 166 156 152 149 143 144 156 225 342 4
267 180 182 204 225 214 129 111 262 151 233 224 225 213 207 191 201 206 208 209 208 202 202 202 201 201 197 195 194 195 196 198 197 194 197 196 186 183 187 185 183 173 170 180 197 218 231 258 305
321 303 176 178 197 233 281 199 247 216 241 271 266 239 214 202 208 215 216 213 211 210 207 205 205 206 203 202 201 203 204 205 201 198 197 199 192 192 199 203 204 204 207 217 232 242 260 281 299
196 328 307 271 206 234 243 257 246 242 254 283 278 230 225 219 223 222 222 221 218 217 214 210 212 210 210 209 208 210 211 212 210 207 202 205 208 206 207 212 216 220 227 237 248 258 268 279 290
197 292 275 285 273 260 206 236 185 259 254 260 255 245 229 226 232 224 223 223 223 222 219 218 215 217 216 217 216 217 216 217 219 217 212 213 216 219 216 218 222 230 236 244 255 265 273 281 291
94 323 326 244 251 261 219 268 198 254 252 248 243 237 234 235 227 235 239 232 224 226 224 222 221 221 222 221 222 222 222 222 225 223 221 219 222 226 229 227 233 239 247 251 258 266 276 282 287
135 109 278 28 203 224 189 263 225 234 233 245 240 234 237 235 236 239 240 239 234 231 228 226 226 225 226 225 227 226 227 227 228 229 228 227 227 229 233 237 240 243 249 255 263 268 273 278 282
237 193 206 309 205 243 199 274 248 241 225 241 241 237 236 240 238 240 240 242 239 237 233 231 229 229 228 229 230 230 230 231 230 231 232 233 232 233 236 240 242 245 252 255 258 262 269 267 289
186 200 196 201 231 211 249 263 278 279 245 235 239 241 239 239 246 246 243 244 244 240 238 237 235 235 231 233 233 232 232 233 232 231 233 234 236 236 239 241 244 248 252 256 260 264 270 268 277
95 203 223 227 242 248 243 245 259 267 263 263 261 244 245 243 248 250 249 245 245 244 240 238 237 235 233 232 231 232 234 234 234 232 233 236 236 238 240 243 245 250 254 261 261 260 261 264 266
293 296 252 295 265 246 268 263 239 268 254 247 255 255 251 251 249 248 249 250 245 245 246 242 240 237 236 237 237 238 239 239 240 240 238 237 239 240 243 245 247 251 256 257 257 255 254 258 257
246 249 252 259 334 279 317 280 243 256 254 243 249 258 257 255 256 255 250 249 249 246 245 245 244 242 237 237 238 239 242 244 241 240 239 238 239 241 244 248 250 251 255 256 257 256 251 255 255
225 188 213 256 62 262 52 283 246 241 261 232 234 242 248 252 255 254 252 247 246 251 246 247 246 244 242 238 237 238 240 242 242 242 242 242 242 244 245 247 249 251 253 255 256 255 252 250 249
223 150 177 192 223 297 224 277 287 216 248 261 240 244 252 255 253 254 251 250 246 245 247 245 247 245 243 241 238 239 242 244 248 250 246 245 245 246 247 248 250 251 251 251 252 251 248 248 249
162 87 58 72 209 246 241 219 273 247 244 265 246 255 257 263 258 257 255 254 251 246 243 246 247 245 244 242 240 239 242 243 244 246 248 247 247 245 244 245 246 248 250 249 249 250 250 254 254
173 149 230 225 200 244 185 201 249 279 287 259 253 267 264 269 268 266 259 251 250 247 242 241 242 243 241 241 242 240 241 242 245 247 248 247 246 243 242 242 243 245 248 247 244 240 250 252 255
191 184 185 213 216 261 90 222 254 230 253 263 268 270 269 269 270 267 265 261 254 252 243 238 238 239 239 238 240 240 240 241 243 245 247 247 246 245 246 245 247 248 247 245 242 245 252 254 254
186 203 218 284 129 277 220 276 293 257 256 263 265 267 262 273 274 269 265 265 257 251 247 241 239 238 239 237 238 239 240 240 241 242 245 247 246 244 242 242 242 242 242 244 242 248 252 259 257
162 145 177 182 233 244 244 255 251 330 315 281 267 270 267 275 286 283 275 270 265 260 254 246 242 239 239 239 237 238 240 241 241 242 244 244 244 241 238 237 238 239 242 238 246 247 252 254 256
180 227 192 134 192 219 274 263 256 265 238 247 271 279 277 292 303 300 292 285 274 260 254 250 244 238 235 237 238 236 238 240 239 241 242 243 242 239 236 235 236 239 244 245 246 247 250 258 260
208 212 212 219 245 252 271 272 232 221 239 237 270 288 286 303 305 307 307 292 273 258 254 248 244 238 235 236 238 235 237 239 239 239 242 242 239 236 232 231 233 240 243 245 250 249 253 257 258
Wind_Speed_850mb
27 29 30 9 8 10 2 3 2 6 1 4 16 9 9 7 8 5 25 22 23 22 24 23 21 21 22 20 19 18 13 15 14 12 14 17 20 22 24 25 24 25 30 28 32 33 36 39 42
26 26 16 6 9 5 6 4 9 7 16 31 21 13 5 2 8 13 32 27 22 21 23 25 22 24 23 22 20 17 13 11 11 12 15 19 23 27 26 25 24 26 25 30 29 32 35 34 36
24 22 9 8 6 5 7 7 9 14 28 7 9 7 3 5 10 30 23 26 24 23 24 25 24 26 24 21 19 16 15 11 7 10 18 21 24 25 26 24 23 24 25 24 24 27 30 33 36
19 9 9 7 2 2 4 8 13 21 6 8 17 11 5 4 16 28 28 25 22 22 23 24 25 29 26 22 20 19 16 10 8 11 16 22 21 22 22 22 21 21 20 20 22 25 26 29 31
13 7 8 5 6 6 5 6 22 7 12 12 8 7 4 23 15 20 26 23 22 22 23 24 28 29 29 27 23 21 16 10 8 11 15 18 19 20 19 18 19 19 18 16 19 21 23 26 29
6 6 7 3 7 8 5 19 14 7 11 15 9 17 11 23 13 24 22 22 22 20 24 24 28 31 31 28 26 23 18 13 9 10 13 15 17 18 18 17 17 17 15 14 14 17 20 22 23
10 7 7 4 4 9 1 16 9 13 9 9 16 12 8 28 22 24 23 24 23 25 24 26 29 31 31 31 28 26 21 14 8 8 11 12 14 15 16 15 16 15 14 11 9 13 16 17 18
11 9 7 7 5 5 3 13 6 18 13 9 19 8 8 39 33 33 28 27 28 29 27 27 28 30 31 30 30 27 22 16 11 9 8 12 13 13 12 13 14 14 13 11 8 8 10 10 12
20 7 5 9 13 6 8 7 6 9 13 18 21 10 10 37 43 43 40 38 36 36 34 31 30 30 30 31 31 29 24 19 16 13 13 12 11 12 12 12 12 12 12 10 8 5 3 5 7
9 10 15 7 8 8 5 4 6 9 12 16 24 23 17 40 49 53 54 50 47 45 41 37 33 32 32 32 31 29 25 20 17 14 13 12 12 14 13 10 10 10 9 7 5 5 1 3 3
6 14 14 7 5 3 10 4 2 11 5 26 36 37 30 46 52 55 57 52 48 47 45 42 38 35 33 32 31 29 27 23 20 17 15 14 14 13 13 11 9 8 6 6 6 4 4 5 5
3 13 23 21 21 5 5 3 4 15 16 11 31 34 40 50 54 56 59 59 54 51 48 45 43 40 36 34 31 30 28 25 21 19 17 15 14 14 13 12 10 9 8 9 7 7 6 5 7
6 7 10 8 16 27 23 24 20 23 21 28 25 30 47 53 51 56 56 57 57 55 52 50 47 45 42 39 36 34 30 26 22 22 19 17 16 15 14 13 13 11 11 9 10 10 9 8 9
1 12 19 9 11 15 10 13 10 29 35 23 29 32 45 56 54 61 62 61 64 59 56 54 53 50 48 44 42 38 34 30 29 26 22 20 19 19 18 16 14 13 12 12 12 12 11 11 11
4 8 11 11 12 10 9 13 16 48 37 39 31 38 44 54 65 62 60 63 60 64 58 60 57 55 54 50 46 44 40 37 35 31 29 26 25 22 21 19 18 15 15 15 14 14 14 14 14
8 4 6 5 15 14 14 22 20 44 35 44 44 41 49 56 63 63 66 65 62 66 68 63 62 61 59 56 52 49 47 44 40 37 35 33 30 28 26 24 21 21 22 19 18 18 17 16 15
2 6 10 14 16 5 15 7 32 51 39 40 46 50 54 57 65 67 69 67 65 64 69 72 69 67 63 60 58 55 52 52 47 45 43 40 37 35 32 30 27 28 27 25 24 23 21 18 16
11 8 8 13 3 10 14 18 30 38 38 63 63 54 53 59 66 67 70 68 71 68 69 73 75 73 67 66 64 62 60 59 56 53 50 46 44 41 39 36 35 34 34 31 28 26 21 20 21
6 8 11 5 12 8 14 15 29 46 35 42 49 49 62 72 71 67 71 75 77 76 75 77 80 81 77 77 75 74 74 69 66 62 57 54 50 47 45 42 40 41 40 35 32 30 27 28 24
4 7 6 7 11 5 11 26 20 40 27 49 67 66 72 72 69 67 70 79 84 84 80 82 86 84 84 84 81 81 75 78 71 66 64 61 58 52 51 49 46 44 44 42 40 38 34 35 32
17 23 13 8 11 7 12 37 20 25 51 56 71 82 75 76 89 91 88 81 83 89 91 91 88 88 89 89 87 86 81 83 82 81 75 70 64 61 57 54 52 48 49 48 45 43 41 40 36
13 14 14 21 1 14 6 26 16 12 37 25 53 69 89 95 98 97 98 98 96 84 92 95 95 94 96 95 95 95 95 94 92 88 79 77 70 65 62 59 57 54 53 53 49 45 44 46 43
5 13 14 10 8 5 8 12 13 15 33 39 34 68 82 89 102 115 113 112 106 99 91 91 97 101 101 101 101 98 99 95 90 87 82 82 75 71 67 64 59 58 56 53 51 47 49 50 46
12 9 7 4 1 18 32 17 42 25 28 40 21 54 69 81 92 100 101 105 110 102 105 104 93 102 105 102 104 102 100 99 94 90 83 79 75 73 71 65 62 58 56 53 52 47 46 46 47
11 8 3 7 10 18 17 19 55 13 27 21 21 58 65 68 77 82 87 94 101 107 106 110 106 99 105 108 105 102 101 99 95 89 84 79 77 74 72 66 62 61 57 54 50 47 52 49 53
17 13 8 12 9 9 5 19 33 15 37 53 58 67 76 76 73 76 79 82 87 91 105 106 107 99 101 108 103 100 101 98 92 89 86 80 78 71 65 58 58 58 54 52 52 47 52 49 57
10 17 17 8 5 8 10 17 27 31 29 43 57 50 56 67 84 86 81 75 79 85 91 110 107 100 102 103 100 103 97 97 94 89 85 80 73 69 60 58 58 52 51 49 45 50 50 55 51
9 12 9 9 11 12 12 12 27 5 6 11 17 52 74 85 82 75 76 79 84 86 82 93 104 106 102 99 103 102 98 91 92 91 87 81 71 64 58 57 56 52 50 46 52 50 53 57 57
11 18 6 1 9 7 12 16 33 31 25 32 34 57 58 64 66 69 69 66 72 76 82 86 92 104 107 99 99 104 99 91 89 90 88 80 69 62 58 57 55 50 54 53 58 55 53 57 61
13 17 32 17 13 6 16 36 14 15 16 17 42 73 65 64 68 65 70 64 67 77 74 82 84 96 111 104 98 100 96 91 88 88 87 80 71 64 60 57 54 51 61 59 60 61 61 57 64
Wind_Direction_850mb
328 334 338 350 52 67 110 217 136 108 165 167 136 163 181 100 155 206 153 150 158 165 164 166 163 157 148 138 125 117 103 96 110 109 100 102 100 95 91 90 90 90 92 91 85 84 77 80 81
332 340 346 21 81 65 271 265 159 180 138 114 102 101 75 107 144 155 154 154 162 169 176 171 173 159 155 145 136 126 125 120 105 102 101 100 97 97 94 93 90 92 98 89 86 80 80 81 82
333 346 3 80 100 158 194 200 158 139 140 122 119 93 87 153 176 162 164 161 160 174 176 175 176 167 159 149 140 132 133 147 111 102 103 101 94 93 94 92 92 98 99 93 90 85 81 78 79
346 355 45 72 330 261 222 181 154 139 195 184 141 79 99 242 157 163 167 161 163 172 172 177 175 176 164 157 156 143 140 135 123 99 97 102 99 98 95 95 99 106 103 97 91 85 82 75 75
359 31 40 47 299 280 263 183 162 150 148 152 152 159 109 142 141 168 168 165 166 171 173 177 176 177 173 167 163 158 156 155 128 98 100 108 109 105 100 96 100 109 109 104 92 83 80 76 76
62 74 52 305 303 303 291 165 165 164 151 155 128 135 151 166 163 163 168 170 167 179 174 177 179 178 176 173 170 171 172 169 143 115 101 112 119 112 106 101 101 105 108 101 93 91 86 82 80
107 81 182 216 268 319 98 164 183 171 170 208 159 134 194 181 165 173 172 174 176 183 181 178 179 179 183 181 181 185 185 190 182 149 119 122 123 118 117 111 109 111 114 111 97 89 81 81 79
119 88 146 223 199 257 50 185 226 181 200 194 179 184 216 185 176 181 181 184 188 189 189 188 185 183 185 188 189 195 202 205 203 184 144 142 142 139 129 124 123 122 122 120 118 90 82 79 74
137 76 219 217 160 224 5 188 176 193 172 178 201 221 222 187 181 186 188 191 195 196 197 197 196 192 190 192 193 197 206 210 204 191 172 161 157 153 150 145 135 133 131 135 129 108 69 59 49
144 140 217 244 183 147 354 189 186 171 180 210 217 215 216 189 192 195 197 198 198 199 199 199 200 197 195 194 195 197 200 197 195 191 190 186 176 174 172 166 156 152 149 143 144 156 225 342 4
267 180 182 204 225 214 129 111 262 151 233 224 225 213 207 191 201 206 208 209 208 202 202 202 201 201 197 195 194 195 196 198 197 194 197 196 186 183 187 185 183 173 170 180 197 218 231 258 305
321 303 176 178 197 233 281 199 247 216 241 271 266 239 214 202 208 215 216 213 211 210 207 205 205 206 203 202 201 203 204 205 201 198 197 199 192 192 199 203 204 204 207 217 232 242 260 281 299
196 328 307 271 206 234 243 257 246 242 254 283 278 230 225 219 223 222 222 221 218 217 214 210 212 210 210 209 208 210 211 212 210 207 202 205 208 206 207 212 216 220 227 237 248 258 268 279 290
197 292 275 285 273 260 206 236 185 259 254 260 255 245 229 226 232 224 223 223 223 222 219 218 215 217 216 217 216 217 216 217 219 217 212 213 216 219 216 218 222 230 236 244 255 265 273 281 291
94 323 326 244 251 261 219 268 198 254 252 248 243 237 234 235 227 235 239 232 224 226 224 222 221 221 222 221 222 222 222 222 225 223 221 219 222 226 229 227 233 239 247 251 258 266 276 282 287
135 109 278 28 203 224 189 263 225 234 233 245 240 234 237 235 236 239 240 239 234 231 228 226 226 225 226 225 227 226 227 227 228 229 228 227 227 229 233 237 240 243 249 255 263 268 273 278 282
237 193 206 309 205 243 199 274 248 241 225 241 241 237 236 240 238 240 240 242 239 237 233 231 229 229 228 229 230 230 230 231 230 231 232 233 232 233 236 240 242 245 252 255 258 262 269 267 289
186 200 196 201 231 211 249 263 278 279 245 235 239 241 239 239 246 246 243 244 244 240 238 237 235 235 231 233 233 232 232 233 232 231 233 234 236 236 239 241 244 248 252 256 260 264 270 268 277
95 203 223 227 242 248 243 245 259 267 263 263 261 244 245 243 248 250 249 245 245 244 240 238 237 235 233 232 231 232 234 234 234 232 233 236 236 238 240 243 245 250 254 261 261 260 261 264 266
293 296 252 295 265 246 268 263 239 268 254 247 255 255 251 251 249 248 249 250 245 245 246 242 240 237 236 237 237 238 239 239 240 240 238 237 239 240 243 245 247 251 256 257 257 255 254 258 257
246 249 252 259 334 279 317 280 243 256 254 243 249 258 257 255 256 255 250 249 249 246 245 245 244 242 237 237 238 239 242 244 241 240 239 238 239 241 244 248 250 251 255 256 257 256 251 255 255
225 188 213 256 62 262 52 283 246 241 261 232 234 242 248 252 255 254 252 247 246 251 246 247 246 244 242 238 237 238 240 242 242 242 242 242 242 244 245 247 249 251 253 255 256 255 252 250 249
223 150 177 192 223 297 224 277 287 216 248 261 240 244 252 255 253 254 251 250 246 245 247 245 247 245 243 241 238 239 242 244 248 250 246 245 245 246 247 248 250 251 251 251 252 251 248 248 249
162 87 58 72 209 246 241 219 273 247 244 265 246 255 257 263 258 257 255 254 251 246 243 246 247 245 244 242 240 239 242 243 244 246 248 247 247 245 244 245 246 248 250 249 249 250 250 254 254
173 149 230 225 200 244 185 201 249 279 287 259 253 267 264 269 268 266 259 251 250 247 242 241 242 243 241 241 242 240 241 242 245 247 248 247 246 243 242 242 243 245 248 247 244 240 250 252 255
191 184 185 213 216 261 90 222 254 230 253 263 268 270 269 269 270 267 265 261 254 252 243 238 238 239 239 238 240 240 240 241 243 245 247 247 246 245 246 245 247 248 247 245 242 245 252 254 254
186 203 218 284 129 277 220 276 293 257 256 263 265 267 262 273 274 269 265 265 257 251 247 241 239 238 239 237 238 239 240 240 241 242 245 247 246 244 242 242 242 242 242 244 242 248 252 259 257
162 145 177 182 233 244 244 255 251 330 315 281 267 270 267 275 286 283 275 270 265 260 254 246 242 239 239 239 237 238 240 241 241 242 244 244 244 241 238 237 238 239 242 238 246 247 252 254 256
180 227 192 134 192 219 274 263 256 265 238 247 271 279 277 292 303 300 292 285 274 260 254 250 244 238 235 237 238 236 238 240 239 241 242 243 242 239 236 235 236 239 244 245 246 247 250 258 260
208 212 212 219 245 252 271 272 232 221 239 237 270 288 286 303 305 307 307 292 273 258 254 248 244 238 235 236 238 235 237 239 239 239 242 242 239 236 232 231 233 240 243 245 250 249 253 257 258